KQA409 HKJK-HKMO

Flight info

Callsign KQA409
Flight time 0h 43m
Altitude 29000
Route ATUDU1D UVOVA UQ135 NEREV NEREV3A
Aircraft B738/M-SDE2E3FGHIRWXY/LB1

Departure

Time 2026-04-20 17:43
Airport Jomo Kenyatta International Airport (HKJK)

Arrival

Time 2026-04-20 18:26
Airport Moi International Airport (HKMO)
Time Latitude Longitude Altitude Speed Heading
2026-04-20 17:30 -1.32906 36.92376 5296 ft 0 kts 140°
2026-04-20 17:33 -1.32904 36.92375 5323 ft 2 kts 140°
2026-04-20 17:33 -1.32884 36.92360 5320 ft 4 kts 145°
2026-04-20 17:33 -1.32861 36.92346 5318 ft 4 kts 154°
2026-04-20 17:33 -1.32836 36.92337 5317 ft 4 kts 175°
2026-04-20 17:34 -1.32815 36.92341 5315 ft 2 kts 231°
2026-04-20 17:34 -1.32811 36.92346 5314 ft 0 kts 232°
2026-04-20 17:37 -1.32823 36.92331 5315 ft 4 kts 232°
2026-04-20 17:37 -1.32840 36.92309 5323 ft 4 kts 232°
2026-04-20 17:37 -1.32854 36.92285 5316 ft 4 kts 254°
2026-04-20 17:38 -1.32849 36.92255 5317 ft 5 kts 291°
2026-04-20 17:38 -1.32822 36.92225 5321 ft 6 kts 324°
2026-04-20 17:38 -1.32789 36.92189 5321 ft 7 kts 296°
2026-04-20 17:38 -1.32799 36.92141 5322 ft 7 kts 240°
2026-04-20 17:39 -1.32832 36.92093 5316 ft 10 kts 234°
2026-04-20 17:39 -1.32885 36.92023 5327 ft 15 kts 234°
2026-04-20 17:39 -1.32894 36.91925 5335 ft 14 kts 279°
2026-04-20 17:39 -1.32878 36.91828 5338 ft 14 kts 278°
2026-04-20 17:40 -1.32873 36.91741 5335 ft 12 kts 281°
2026-04-20 17:40 -1.32841 36.91707 5335 ft 0 kts 328°
2026-04-20 17:40 -1.32836 36.91703 5335 ft 3 kts 327°
2026-04-20 17:40 -1.32799 36.91678 5335 ft 9 kts 323°
2026-04-20 17:41 -1.32747 36.91659 5335 ft 9 kts 21°
2026-04-20 17:41 -1.32728 36.91679 5337 ft 0 kts 54°
2026-04-20 17:42 -1.32664 36.91768 5334 ft 48 kts 54°
2026-04-20 17:42 -1.32326 36.92229 5319 ft 114 kts 54°
2026-04-20 17:42 -1.31742 36.93027 5309 ft 168 kts 53°
2026-04-20 17:42 -1.31022 36.93992 5921 ft 174 kts 53°
2026-04-20 17:43 -1.30331 36.94988 6728 ft 170 kts 68°
2026-04-20 17:43 -1.30176 36.96145 7402 ft 174 kts 91°
2026-04-20 17:43 -1.30103 36.97464 7628 ft 203 kts 83°
2026-04-20 17:43 -1.29906 36.98944 7838 ft 226 kts 83°
2026-04-20 17:44 -1.29680 37.00575 8080 ft 245 kts 83°
2026-04-20 17:44 -1.29454 37.02261 8549 ft 251 kts 83°
2026-04-20 17:44 -1.29227 37.04013 9062 ft 256 kts 83°
2026-04-20 17:44 -1.29002 37.05807 9746 ft 257 kts 83°
2026-04-20 17:45 -1.28860 37.06968 10116 ft 261 kts 83°
2026-04-20 17:45 -1.28568 37.09389 10880 ft 264 kts 83°
2026-04-20 17:45 -1.28348 37.11225 11113 ft 272 kts 83°
2026-04-20 17:45 -1.28119 37.13211 11157 ft 303 kts 85°
2026-04-20 17:46 -1.28111 37.15422 11163 ft 331 kts 97°
2026-04-20 17:46 -1.28981 37.17559 11693 ft 339 kts 125°
2026-04-20 17:46 -1.30481 37.19378 12532 ft 339 kts 130°
2026-04-20 17:46 -1.32112 37.21099 13233 ft 344 kts 134°
2026-04-20 17:47 -1.33849 37.22774 13897 ft 349 kts 135°
2026-04-20 17:47 -1.35627 37.24441 14510 ft 352 kts 135°
2026-04-20 17:47 -1.37421 37.26117 15147 ft 355 kts 135°
2026-04-20 17:47 -1.39235 37.27821 15753 ft 358 kts 135°
2026-04-20 17:48 -1.41057 37.29542 16359 ft 361 kts 135°
2026-04-20 17:48 -1.42893 37.31284 16980 ft 364 kts 135°
2026-04-20 17:48 -1.44732 37.33034 17576 ft 367 kts 135°
2026-04-20 17:48 -1.46595 37.34809 18172 ft 371 kts 135°
2026-04-20 17:49 -1.48447 37.36576 18710 ft 374 kts 135°
2026-04-20 17:49 -1.50338 37.38380 19171 ft 377 kts 135°
2026-04-20 17:49 -1.52242 37.40196 19642 ft 381 kts 135°
2026-04-20 17:49 -1.54169 37.42035 20110 ft 384 kts 135°
2026-04-20 17:50 -1.56106 37.43883 20571 ft 387 kts 135°
2026-04-20 17:50 -1.58068 37.45755 21023 ft 391 kts 135°
2026-04-20 17:50 -1.60041 37.47637 21447 ft 395 kts 135°
2026-04-20 17:50 -1.62044 37.49547 21916 ft 397 kts 135°
2026-04-20 17:51 -1.64047 37.51458 22403 ft 399 kts 135°
2026-04-20 17:51 -1.66063 37.53381 22829 ft 403 kts 135°
2026-04-20 17:51 -1.68103 37.55328 23236 ft 406 kts 135°
2026-04-20 17:51 -1.70158 37.57288 23615 ft 410 kts 135°
2026-04-20 17:52 -1.72225 37.59261 23976 ft 412 kts 135°
2026-04-20 17:52 -1.74308 37.61248 24331 ft 414 kts 135°
2026-04-20 17:52 -1.76367 37.63212 24703 ft 415 kts 135°
2026-04-20 17:52 -1.78480 37.65239 25081 ft 417 kts 134°
2026-04-20 17:53 -1.80553 37.67278 25424 ft 419 kts 134°
2026-04-20 17:53 -1.82622 37.69345 25768 ft 421 kts 134°
2026-04-20 17:53 -1.84671 37.71404 26071 ft 423 kts 133°
2026-04-20 17:53 -1.86776 37.73519 26403 ft 425 kts 134°
2026-04-20 17:54 -1.88873 37.75622 26731 ft 427 kts 134°
2026-04-20 17:54 -1.90978 37.77730 27038 ft 429 kts 134°
2026-04-20 17:54 -1.93095 37.79845 27355 ft 431 kts 134°
2026-04-20 17:54 -1.95192 37.81938 27658 ft 433 kts 134°
2026-04-20 17:55 -1.97331 37.84072 27947 ft 435 kts 134°
2026-04-20 17:55 -1.99477 37.86212 28262 ft 437 kts 134°
2026-04-20 17:55 -2.01636 37.88366 28564 ft 438 kts 134°
2026-04-20 17:55 -2.03790 37.90514 28918 ft 438 kts 134°
2026-04-20 17:56 -2.05956 37.92674 29031 ft 442 kts 134°
2026-04-20 17:56 -2.10314 37.97021 29037 ft 439 kts 134°
2026-04-20 17:57 -2.14618 38.01315 29046 ft 437 kts 134°
2026-04-20 17:57 -2.18939 38.05627 29040 ft 440 kts 134°
2026-04-20 17:58 -2.23277 38.09956 29032 ft 441 kts 134°
2026-04-20 17:58 -2.27609 38.14279 29036 ft 442 kts 134°
2026-04-20 17:59 -2.31962 38.18624 29026 ft 441 kts 134°
2026-04-20 17:59 -2.35561 38.22215 29023 ft 440 kts 134°
2026-04-20 18:00 -2.40616 38.27262 29019 ft 438 kts 134°
2026-04-20 18:00 -2.44200 38.30840 29015 ft 437 kts 134°
2026-04-20 18:01 -2.48504 38.35138 29013 ft 438 kts 134°
2026-04-20 18:01 -2.52816 38.39444 29006 ft 438 kts 134°
2026-04-20 18:02 -2.57131 38.43753 29000 ft 438 kts 134°
2026-04-20 18:02 -2.61347 38.47962 28982 ft 424 kts 134°
2026-04-20 18:03 -2.65532 38.52143 28998 ft 424 kts 134°
2026-04-20 18:03 -2.67627 38.54237 28629 ft 426 kts 134°
2026-04-20 18:03 -2.69710 38.56318 28214 ft 421 kts 134°
2026-04-20 18:03 -2.71770 38.58375 27770 ft 416 kts 134°
2026-04-20 18:04 -2.73816 38.60419 27291 ft 413 kts 134°
2026-04-20 18:04 -2.75841 38.62442 26829 ft 409 kts 134°
2026-04-20 18:04 -2.77842 38.64442 26359 ft 406 kts 134°
2026-04-20 18:04 -2.79807 38.66405 25909 ft 404 kts 134°
2026-04-20 18:05 -2.83767 38.70363 24963 ft 400 kts 134°
2026-04-20 18:05 -2.85733 38.72328 24495 ft 398 kts 134°
2026-04-20 18:05 -2.87687 38.74280 24025 ft 397 kts 134°
2026-04-20 18:06 -2.89638 38.76230 23570 ft 395 kts 134°
2026-04-20 18:06 -2.91584 38.78176 23028 ft 394 kts 134°
2026-04-20 18:06 -2.93515 38.80106 22551 ft 390 kts 134°
2026-04-20 18:06 -2.95431 38.82021 22088 ft 387 kts 134°
2026-04-20 18:07 -2.97329 38.83919 21630 ft 384 kts 134°
2026-04-20 18:07 -2.99209 38.85798 21188 ft 381 kts 134°
2026-04-20 18:07 -3.01077 38.87666 20742 ft 378 kts 134°
2026-04-20 18:07 -3.02905 38.89494 20316 ft 375 kts 134°
2026-04-20 18:08 -3.04742 38.91331 19879 ft 373 kts 134°
2026-04-20 18:08 -3.06572 38.93161 19440 ft 370 kts 134°
2026-04-20 18:08 -3.08394 38.94983 19009 ft 368 kts 134°
2026-04-20 18:08 -3.10205 38.96794 18560 ft 367 kts 134°
2026-04-20 18:09 -3.11999 38.98589 18110 ft 365 kts 134°
2026-04-20 18:09 -3.13793 39.00383 17634 ft 362 kts 134°
2026-04-20 18:09 -3.15579 39.02171 17063 ft 363 kts 134°
2026-04-20 18:09 -3.17365 39.03958 16505 ft 363 kts 134°
2026-04-20 18:10 -3.19144 39.05738 15952 ft 363 kts 134°
2026-04-20 18:10 -3.20931 39.07526 15408 ft 362 kts 134°
2026-04-20 18:10 -3.22715 39.09311 14868 ft 362 kts 134°
2026-04-20 18:10 -3.24502 39.11098 14341 ft 361 kts 134°
2026-04-20 18:11 -3.26292 39.12854 13826 ft 360 kts 135°
2026-04-20 18:11 -3.28100 39.14589 13250 ft 359 kts 135°
2026-04-20 18:11 -3.29907 39.16308 12678 ft 358 kts 135°
2026-04-20 18:11 -3.31699 39.18013 12107 ft 351 kts 135°
2026-04-20 18:12 -3.33414 39.19647 11551 ft 340 kts 135°
2026-04-20 18:12 -3.35108 39.21263 11002 ft 332 kts 135°
2026-04-20 18:12 -3.36754 39.22837 10462 ft 324 kts 135°
2026-04-20 18:12 -3.38367 39.24381 9929 ft 317 kts 135°
2026-04-20 18:13 -3.39945 39.25894 9397 ft 310 kts 135°
2026-04-20 18:13 -3.41485 39.27370 8890 ft 304 kts 135°
2026-04-20 18:13 -3.43008 39.28830 8422 ft 305 kts 135°
2026-04-20 18:13 -3.44552 39.30312 7946 ft 309 kts 135°
2026-04-20 18:14 -3.46105 39.31802 7467 ft 310 kts 136°
2026-04-20 18:14 -3.47663 39.33295 6998 ft 310 kts 136°
2026-04-20 18:14 -3.49221 39.34789 6535 ft 311 kts 136°
2026-04-20 18:14 -3.50787 39.36290 6059 ft 311 kts 136°
2026-04-20 18:15 -3.52330 39.37770 5579 ft 311 kts 136°
2026-04-20 18:15 -3.53895 39.39271 5101 ft 311 kts 136°
2026-04-20 18:15 -3.55462 39.40774 4647 ft 310 kts 137°
2026-04-20 18:15 -3.57011 39.42261 4255 ft 307 kts 137°
2026-04-20 18:16 -3.58538 39.43725 4033 ft 298 kts 137°
2026-04-20 18:16 -3.60002 39.45131 3991 ft 286 kts 137°
2026-04-20 18:16 -3.60481 39.45591 3996 ft 284 kts 137°
2026-04-20 18:16 -3.60711 39.45812 3997 ft 284 kts 137°
2026-04-20 18:17 -3.62135 39.47177 4001 ft 285 kts 137°
2026-04-20 18:17 -3.63571 39.48553 3998 ft 286 kts 137°
2026-04-20 18:17 -3.65006 39.49928 3994 ft 285 kts 137°
2026-04-20 18:17 -3.66439 39.51302 3989 ft 285 kts 137°
2026-04-20 18:18 -3.67854 39.52660 3991 ft 285 kts 137°
2026-04-20 18:18 -3.69283 39.54030 3987 ft 284 kts 137°
2026-04-20 18:18 -3.70711 39.55400 3987 ft 284 kts 137°
2026-04-20 18:18 -3.72136 39.56768 3982 ft 284 kts 137°
2026-04-20 18:19 -3.73561 39.58137 3984 ft 284 kts 137°
2026-04-20 18:19 -3.74989 39.59507 3983 ft 282 kts 137°
2026-04-20 18:19 -3.76375 39.60836 3953 ft 267 kts 137°
2026-04-20 18:19 -3.77678 39.62088 3958 ft 252 kts 137°
2026-04-20 18:20 -3.78949 39.63298 3665 ft 253 kts 137°
2026-04-20 18:20 -3.80223 39.64505 3371 ft 249 kts 137°
2026-04-20 18:20 -3.81460 39.65675 3090 ft 242 kts 138°
2026-04-20 18:20 -3.82672 39.66828 2791 ft 240 kts 139°
2026-04-20 18:21 -3.83997 39.67863 2468 ft 241 kts 149°
2026-04-20 18:21 -3.85420 39.68703 2149 ft 233 kts 155°
2026-04-20 18:21 -3.86943 39.68935 1998 ft 222 kts 193°
2026-04-20 18:21 -3.88221 39.68137 2005 ft 219 kts 223°
2026-04-20 18:22 -3.89258 39.67078 1967 ft 199 kts 216°
2026-04-20 18:22 -3.90430 39.66639 1977 ft 171 kts 182°
2026-04-20 18:22 -3.91594 39.66606 1995 ft 173 kts 185°
2026-04-20 18:22 -3.92730 39.66159 1948 ft 182 kts 218°
2026-04-20 18:23 -3.93582 39.65259 1912 ft 173 kts 225°
2026-04-20 18:23 -3.94399 39.64500 1749 ft 150 kts 212°
2026-04-20 18:23 -3.95270 39.63971 1444 ft 140 kts 207°
2026-04-20 18:23 -3.96089 39.63515 1225 ft 136 kts 207°
2026-04-20 18:24 -3.96907 39.63087 1228 ft 133 kts 206°
2026-04-20 18:24 -3.97738 39.62640 1131 ft 136 kts 207°
2026-04-20 18:24 -3.98565 39.62192 948 ft 133 kts 208°
2026-04-20 18:24 -3.99345 39.61729 754 ft 127 kts 209°
2026-04-20 18:25 -4.00103 39.61311 562 ft 123 kts 209°
2026-04-20 18:25 -4.00871 39.60894 368 ft 125 kts 210°
2026-04-20 18:25 -4.01612 39.60477 223 ft 113 kts 209°
2026-04-20 18:25 -4.02178 39.60160 208 ft 65 kts 210°
2026-04-20 18:26 -4.02387 39.60042 210 ft 14 kts 210°
2026-04-20 18:26 -4.02470 39.59997 204 ft 14 kts 209°
2026-04-20 18:26 -4.02568 39.59943 214 ft 18 kts 209°
2026-04-20 18:26 -4.02676 39.59918 206 ft 17 kts 157°
2026-04-20 18:27 -4.02741 39.59954 210 ft 5 kts 149°
2026-04-20 18:27 -4.02772 39.59972 209 ft 5 kts 149°
2026-04-20 18:27 -4.02801 39.59990 209 ft 3 kts 149°
2026-04-20 18:27 -4.02819 39.60003 205 ft 3 kts 139°
2026-04-20 18:28 -4.02832 39.60019 204 ft 3 kts 124°
2026-04-20 18:28 -4.02843 39.60037 213 ft 3 kts 120°
2026-04-20 18:28 -4.02853 39.60055 207 ft 3 kts 118°
2026-04-20 18:28 -4.02869 39.60064 212 ft 3 kts 184°
2026-04-20 18:29 -4.02887 39.60052 211 ft 3 kts 211°
2026-04-20 18:29 -4.02906 39.60042 207 ft 3 kts 209°
2026-04-20 18:29 -4.02924 39.60032 212 ft 3 kts 208°
2026-04-20 18:29 -4.02931 39.60028 209 ft 0 kts 209°
2026-04-20 18:30 -4.02934 39.60027 210 ft 0 kts 209°